{"data":{"norad_id":58770,"epoch":"2026-09-20T05:07:58.891584Z","epoch_age_seconds":177212,"freshness":"STALE","line1":"1 58770U 24011F   26263.21387606  .00001254  00000+0  48232-4 0  9991","line2":"2 58770  53.1584 187.2381 0001010  81.7550 278.3567 15.34394733150098","mean_motion":15.34394733,"eccentricity":0.000101,"inclination_deg":53.1584,"raan_deg":187.2381,"arg_perigee_deg":81.755,"mean_anomaly_deg":278.3567,"bstar":4.8232e-5,"rev_number":15009,"period_min":93.84808022539,"perigee_km":462.02796844047,"apogee_km":463.40982133124,"semimajor_km":6840.8558948859,"source":"CELESTRAK","updated_at":"2026-09-21T09:00:33.957446Z"}}